Location: Bosmoreau
(46.0004°N, 1.7549°E)
Time: 19:36:30
(UTC+00:00)

Daily predictions for brighter satellites

Satellite Brightness Start Highest point End
(mag) Time Altitude Azimuth Time Altitude Azimuth Time Altitude Azimuth
Cosmos 1814 Rocket 4.3 19:32:40 10° NNW 19:37:55 74° WSW 19:43:03 10° SSE
SL-4 R/B 2.3 19:36:06 10° WNW 19:40:27 85° SSW 19:45:05 10° ESE
Cosmos 1805 Rocket 4.3 19:38:43 10° N 19:42:43 35° ENE 19:46:42 10° SE
X-37B 0.6 19:40:34 10° W 19:43:45 74° S 19:46:56 10° E
IRS-1A Rocket 4.4 19:45:24 10° SSE 19:51:09 77° ENE 19:57:01 10° NNW
Cosmos 1745 Rocket 4.3 19:45:44 10° N 19:51:45 48° ENE 19:57:39 10° SSE
SPOT 3 Rocket 4.1 19:49:41 10° SE 19:54:31 42° ENE 19:59:21 10° N
ERS-2 3.1 19:51:18 10° N 19:54:49 50° WNW 19:58:21 10° SSW
Cosmos 1844 4.0 19:51:08 10° S 19:56:33 44° ESE 20:01:55 10° NE
Resurs 1-3 3.6 19:52:14 10° SSE 19:56:35 72° ENE 20:00:59 10° N
Cosmos 1743 Rocket 3.5 19:52:34 10° N 19:56:56 87° E 20:01:17 10° S
Cosmos 968 Rocket 3.5 19:52:12 10° S 19:57:22 63° ESE 20:02:34 10° NNE
BREEZE-M DEB (TANK) 3.8 19:53:37 10° W 19:57:54 82° S 20:05:18 10° ESE
ATLAS 5 CENTAUR R/B 3.0 19:54:27 10° NNW 19:59:39 44° NE 20:05:41 10° ESE
BREEZE M DEB (TANK) 3.9 20:00:00 10° WSW 20:03:34 85° NNW 20:15:04 10° ENE
Cosmos 1486 Rocket 4.1 19:59:42 10° S 20:04:54 59° ESE 20:10:10 10° NNE
Intercosmos 25 Rocket 4.1 19:59:24 10° N 20:06:19 79° E 20:10:31 10° SSE
IGS 5A 3.8 20:04:31 10° SE 20:08:27 47° ENE 20:12:26 10° N
Cosmos 1500 Rocket 3.9 20:04:30 10° NNW 20:08:54 69° W 20:13:13 10° S
Cosmos 1833 Rocket 4.4 20:05:02 10° N 20:09:17 21° NE 20:13:29 10° E
Cosmos 2221 3.8 20:06:33 10° SSW 20:10:40 44° WNW 20:14:51 10° N
S3M 4.1 20:05:06 10° S 20:11:22 62° E 20:17:38 10° NNE
BREEZE-M R/B 1.9 20:09:20 10° SW 20:12:01 49° SSE 20:14:23 10° ENE
USA 186 4.2 20:11:18 10° SW 20:13:00 16° W 20:14:38 10° NW
Cosmos 1666 Rocket 4.3 20:12:44 10° N 20:16:50 36° ENE 20:19:58 15° SE
FALCON 9 DEB 4.3 20:15:17 10° WNW 20:17:56 28° SW 20:20:03 14° SSE
Cosmos 1933 3.5 20:17:51 10° S 20:21:48 53° E 20:25:44 10° NNE
USA 245 3.7 20:23:48 18° E 20:24:17 19° ENE 20:25:59 10° NNE
Cosmos 1242 Rocket 2.8 20:24:03 11° S 20:27:19 48° E 20:30:46 10° NNE
OBJECT-B 3.3 20:25:05 10° SW 20:27:36 21° W 20:30:11 10° NW
Cosmos 1553 Rocket 4.3 20:23:57 10° SSW 20:30:02 69° W 20:36:16 10° N
Cosmos 1437 Rocket 3.2 20:27:27 10° SSW 20:31:16 64° WNW 20:35:12 10° N
BREEZE M DEB (TANK) 3.1 20:25:51 10° W 20:31:47 49° N 20:34:07 11° ENE
FALCON 9 DEB 4.4 20:30:26 10° W 20:33:01 25° SW 20:34:36 17° S
Resurs 01 Rocket 1.7 20:29:42 11° S 20:33:57 80° WSW 20:38:26 10° NNW
OE (NEXTSAT) 4.3 20:33:55 10° W 20:37:23 88° N 20:39:58 17° E
Spot 2 Rocket 3.9 20:34:12 18° SE 20:37:37 46° ENE 20:42:26 10° N
SJ 16-02 3.4 20:38:19 12° E 20:38:19 12° E 20:39:55 10° ENE
DELTA 2 R/B (1) 4.2 20:33:33 10° WSW 20:38:40 38° SSW 20:41:52 20° SE
Sich 1 3.1 20:34:53 10° NNW 20:39:13 79° W 20:43:00 13° S
COSMOS 2406 4.3 20:34:56 10° N 20:40:01 32° NE 20:43:43 16° ESE
Meteor 1-20 Rocket 4.2 20:36:38 10° NNW 20:42:19 86° W 20:47:11 14° S
Cosmos 2082 Rocket 4.0 20:38:23 10° N 20:42:29 20° NE 20:46:28 10° E
BREEZE-M DEB (TANK) 4.5 20:43:29 10° WSW 20:44:39 12° SSW 20:45:33 11° SSW
CZ-4C R/B 3.5 20:38:09 10° NNW 20:44:59 50° NE 20:51:18 17° ESE
Cosmos 1500 4.0 20:42:23 10° N 20:45:51 33° ENE 20:47:10 25° ESE
Cosmos 1782 2.9 20:43:16 20° SSE 20:45:51 53° E 20:49:46 10° NNE
ERS-1 Rocket 3.6 20:50:52 23° SE 20:53:34 43° ENE 20:58:17 10° N
SPOT 5 3.6 20:52:52 24° SE 20:55:33 44° ENE 21:00:30 10° N
Cosmos 1503 Rocket 3.9 20:50:32 10° SSW 20:55:42 89° WNW 21:00:57 10° NNE
Cosmos 1271 Rocket 4.4 21:00:22 19° E 21:00:22 19° E 21:03:10 10° NE
Cosmos 1151 Rocket 2.9 20:58:02 18° S 21:01:17 81° E 21:05:41 10° N
Cosmos 1777 Rocket 4.4 20:58:39 23° SSE 21:01:22 42° ESE 21:06:15 10° NE
USA 290 3.1 20:58:27 10° NW 21:01:34 44° WSW 21:02:58 26° SSW
Cosmos 1602 3.8 21:00:25 10° NNW 21:04:16 72° W 21:06:20 26° S
Terra 2.6 21:02:22 25° ESE 21:04:22 36° ENE 21:08:44 10° N
Cosmos 2278 Rocket 2.8 21:05:44 27° SSE 21:07:52 36° ESE 21:13:00 10° NE
USA 307 4.3 21:04:09 10° NW 21:08:05 34° NNE 21:11:25 13° ENE
CZ-2C R/B 4.1 21:08:19 10° N 21:12:45 63° WNW 21:17:12 10° SSW
Cosmos 1515 Rocket 3.7 21:17:35 37° SSE 21:19:01 56° E 21:23:21 10° NNE
SL-4 R/B 4.0 21:16:20 10° W 21:19:42 21° SW 21:21:08 18° SSW
SPOT 1/Viking Rocket 4.0 21:16:47 21° S 21:20:13 59° W 21:25:23 10° NNW
Cosmos 1844 Rocket 4.2 21:15:06 10° WSW 21:20:15 38° NW 21:25:27 10° NNE
X-37B 0.8 21:17:10 10° W 21:20:09 54° SSW 21:20:09 54° SSW
Cosmos 2084 3.3 21:17:53 21° SSW 21:20:31 62° SE 21:24:43 10° NE
USA 308 4.1 21:17:37 10° NW 21:21:39 38° NNE 21:24:24 18° ENE
SWARM C 4.4 21:19:04 10° N 21:22:24 85° E 21:22:52 63° SSE
SWARM A 4.1 21:19:10 10° N 21:22:31 88° E 21:23:01 61° S
ARIANE 5 R/B 2.6 21:20:40 32° S 21:22:34 73° WSW 21:26:56 10° NNW
Cosmos 1437 2.6 21:25:46 65° WSW 21:25:55 67° WNW 21:28:46 10° N
JB-3 4.2 21:22:30 10° NNE 21:26:26 86° WNW 21:27:56 36° SSW
Cosmos 1633 Rocket 3.8 21:24:49 10° NNW 21:29:03 47° W 21:31:23 24° SSW
Cosmos 1812 2.6 21:31:31 52° S 21:32:24 83° E 21:36:17 10° N
Cosmos 1470 Rocket 3.8 21:33:53 10° NNW 21:38:21 67° W 21:39:56 38° SSW
Cosmos 2184 Rocket 4.0 21:32:31 10° N 21:38:45 69° E 21:41:19 37° SSE
Cosmos 1328 Rocket 4.3 21:36:50 19° SSW 21:39:51 50° WNW 21:44:10 10° N
Meteor 1-5 Rocket 4.0 21:34:28 10° NNW 21:39:56 88° WSW 21:42:00 39° S
NOSS 3-4 (A) 4.2 21:35:58 10° NW 21:42:46 58° NE 21:47:02 27° ESE
NOSS 3-4 (C) 4.2 21:36:05 10° NW 21:42:52 57° NE 21:47:09 27° ESE
ATLAS 5 CENTAUR R/B 3.1 21:38:59 10° NW 21:44:26 45° WSW 21:47:13 29° S
CARTOSAT-1 4.3 21:44:08 31° SSW 21:45:43 45° W 21:49:54 10° NNW
Cosmos 2074 Rocket 3.9 21:40:24 10° N 21:46:44 81° E 21:49:23 38° SSE
NOSS 3-3 (A) 4.1 21:45:43 10° SW 21:51:28 72° NW 21:58:06 10° NE
NOSS 3-3 (C) 4.1 21:45:48 10° SW 21:51:34 72° NW 21:58:13 10° NE
Cosmos 1666 2.5 21:48:15 10° NNW 21:52:00 79° W 21:52:12 75° SW
Cosmos 1933 Rocket 3.6 21:48:34 10° NNW 21:52:54 71° W 21:53:49 53° SSW
Cosmos 1833 Rocket 2.7 21:48:13 10° NNW 21:53:53 80° WSW 21:55:42 45° SSE
Nadezhda 1 Rocket 4.1 21:51:52 40° SSE 21:53:58 59° E 22:00:07 10° NNE
ATLAS 2AS CENTAUR R/B 3.6 21:49:08 10° NNW 21:56:18 45° NE 22:00:32 22° E
Meteor 2-12 Rocket 4.4 21:50:58 10° N 21:57:03 72° E 21:59:02 44° SSE
Cosmos 1743 4.3 21:53:59 10° NNE 21:56:52 24° ENE 21:56:52 24° ENE
BREEZE-M DEB (TANK) 3.6 21:57:09 10° WNW 21:57:58 21° NW 21:57:58 21° NW
USA 215 4.3 21:56:04 10° E 22:02:06 42° NNE 22:08:10 10° NW
Cosmos 1538 Rocket 4.1 21:57:09 10° NNW 22:02:32 74° WSW 22:03:56 49° S
USA 305 3.2 21:59:39 10° NW 22:03:53 60° NNE 22:04:41 50° ENE
Iridium 4 Rocket 4.0 22:01:47 33° SSW 22:04:22 68° W 22:10:17 10° N
Cosmos 1610 Rocket 4.4 22:02:37 10° N 22:08:48 77° E 22:10:38 48° SSE
Cosmos 158 Rocket 3.7 22:09:54 10° NNW 22:14:49 89° ENE 22:15:28 68° SSE
SJ 16-02 1.5 22:15:15 56° SW 22:16:04 72° WNW 22:20:31 10° NNE
Cosmos 1733 Rocket 4.3 22:12:17 10° NNE 22:16:02 29° ENE 22:16:02 29° ENE
Cosmos 2228 Rocket 3.0 22:17:34 72° SW 22:17:58 81° W 22:22:27 10° N
Meteor 1-27 Rocket 3.7 22:18:38 51° S 22:20:10 83° E 22:26:06 10° NNE
Cosmos 1680 Rocket 3.8 22:15:12 10° NNW 22:20:28 57° ENE 22:21:27 49° ESE
Cosmos 2341 Rocket 4.4 22:15:13 10° N 22:21:29 53° ENE 22:23:08 43° ESE
USA 306 2.9 22:18:46 10° NW 22:23:03 76° NNE 22:23:05 76° NE
COSMOS 2406 3.8 22:19:06 10° NW 22:24:30 46° WSW 22:25:47 39° SW
Cosmos 2082 Rocket 2.1 22:21:39 10° NNW 22:27:18 83° WSW 22:28:19 61° SSE
CZ-4C R/B 3.4 22:26:41 10° NW 22:33:49 52° WSW 22:36:28 39° SSW
Cosmos 1271 Rocket 4.0 22:35:28 34° W 22:36:02 36° WNW 22:39:46 10° N
Cosmos 2218 Rocket 4.4 22:34:38 10° N 22:40:42 49° ENE 22:42:06 42° ESE
Terra 3.2 22:41:15 26° WSW 22:42:10 28° W 22:46:16 10° NW
Meteor 1-11 Rocket 4.4 22:37:55 10° NNW 22:43:40 51° W 22:45:14 40° SW
Okean 1 4.4 22:46:34 38° NE 22:46:34 38° NE 22:49:24 10° NNE
USA 307 3.4 22:44:06 10° WNW 22:47:31 55° WNW 22:47:31 55° WNW
Cosmos 1340 Rocket 3.2 22:46:10 10° NNW 22:49:40 61° NW 22:49:40 61° NW
Cosmos 2278 Rocket 3.4 22:47:29 14° WSW 22:51:54 39° NW 22:57:13 10° NNE
Spot 4 3.7 22:53:27 85° SE 22:53:34 87° ENE 22:58:27 10° NNW
Cosmos 923 Rocket 4.2 22:50:25 10° NNW 22:55:35 58° WSW 22:55:53 57° WSW
Cosmos 1544 4.4 22:52:41 10° NNW 22:55:12 37° NW 22:55:12 37° NW
Cosmos 1862 Rocket 4.1 22:57:00 49° NE 22:57:00 49° NE 23:00:28 10° NNE
Cosmos 1898 Rocket 3.3 22:57:39 79° S 22:57:56 85° ESE 23:03:18 10° NNE
Cosmos 1536 4.1 22:56:13 10° NNW 22:59:30 33° WNW 22:59:30 33° WNW
USA 308 3.9 22:57:36 10° WNW 23:00:30 40° WNW 23:00:30 40° WNW
Cosmos 2369 Rocket 3.3 23:03:27 29° E 23:03:27 29° E 23:07:37 10° NE
COBE Rocket 4.3 23:07:04 53° E 23:07:22 54° ENE 23:12:20 10° N
Meteor 2-9 Rocket 4.1 23:04:07 10° N 23:09:58 78° E 23:10:35 69° SE
SL-8 Rocket 3.9 23:04:05 10° N 23:10:27 88° W 23:11:34 64° S
Cosmos 1943 Rocket 2.1 23:11:54 66° ESE 23:11:55 66° ESE 23:17:30 10° NNE
Cosmos 1975 3.7 23:09:10 10° N 23:12:12 45° NNE 23:12:12 45° NNE
Cosmos 2084 Rocket 4.1 23:09:16 10° NNW 23:13:20 51° NE 23:13:20 51° NE
ALOS 2 2.8 23:16:05 69° N 23:16:05 69° N 23:19:59 10° NNW
DNEPR-1 R/B 4.1 23:19:56 69° ESE 23:19:56 69° ESE 23:24:48 10° NE
Cosmos 1707 Rocket 4.4 23:20:01 42° WNW 23:20:01 42° WNW 23:24:08 10° N
Cosmos 44 3.4 23:15:16 10° NW 23:20:45 87° SW 23:20:47 87° SSW
Meteor 2-4 Rocket 4.0 23:20:31 53° ESE 23:20:48 54° E 23:26:19 10° NNE
Okean 1-7 4.1 23:30:15 36° ENE 23:30:15 36° ENE 23:33:20 10° NNE
Cosmos 372 Rocket 4.1 23:30:36 64° ENE 23:30:36 64° ENE 23:35:16 10° NNE
Meteor 1-18 Rocket 4.1 23:33:04 72° SW 23:33:35 80° WNW 23:39:14 10° N
NOSS 3-4 (A) 4.5 23:27:05 10° NW 23:33:38 40° WSW 23:34:28 39° SW
NOSS 3-4 (C) 4.5 23:27:11 10° NW 23:33:44 40° WSW 23:34:34 39° SW
Cosmos 1238 Rocket 4.1 23:29:50 10° NNW 23:35:59 53° W 23:36:39 50° WSW
SL-24 R/B - RUBIN 2 4.2 23:32:43 10° NW 23:37:29 57° W 23:37:29 57° W
SeaSat 1 3.0 23:34:11 10° NE 23:38:19 48° E 23:38:19 48° E
Cosmos 864 Rocket 4.4 23:33:03 10° NNW 23:39:10 68° W 23:39:57 61° SW
Cosmos 2242 Rocket 4.1 23:40:22 52° NE 23:40:22 52° NE 23:44:00 10° NNE
USA 215 3.2 23:42:20 43° ESE 23:44:45 88° NE 23:51:19 10° NW
Cosmos 2297 4.2 23:45:50 43° WSW 23:47:14 53° WNW 23:52:49 10° NNE
ATLAS 2AS CENTAUR R/B 2.9 23:40:23 10° NW 23:47:23 51° WSW 23:47:57 50° SW
Cosmos 2181 Rocket 4.5 23:52:11 42° WSW 23:53:32 49° WNW 23:59:29 10° N
SJ 16-02 4.3 23:55:05 10° NW 23:55:31 10° NW 23:55:57 10° NW
